Gorizont

operational
NORAD ID: 15484 Int'l Des: 1985-007 Owner: MSVYAZ Country: SU
HEOCIRCULARGSO

About Gorizont

Description loading...

Live Position

Loading 3D Globe...

Upcoming Passes

Altitude History

Altitude vs Time

uPlot chart will show altitude changes over time

Two-Line Element Set

1 15484U 85007A 26062.44003463 -.00000180 00000-0 00000+0 0 9991
2 15484 9.3478 316.2084 0003253 293.6778 50.2199 1.00252897151562
Epoch: Mar 3, 2026 • Age: 16 hours

Current Status

Altitude 35801.1 km
Velocity 3.07 km/s
Sub-Earth Point 8.93°N, 19.68°W
Launch Date Jan 18, 1985
Age 41.1 years
Type other

Technical Details

Classification Payload
Mass 2120.00 kg
Dry Mass 2000.00 kg
Total Mass 2120.00 kg
Length 5.50 m
Diameter 3.30 m
Span 9.50 m
Shape Cyl + 2 Pan
Manufacturer NPOPM
Bus Type Gorizont
Phase Status In Orbit
Owner/State MSVYAZ/SU

Large Constellations

Loading constellations...